Time,TemperatureF,DewpointF,PressureIn,WindDirection,WindDirectionDegrees,WindSpeedMPH,WindSpeedGustMPH,Humidity,HourlyPrecipIn,Conditions,Clouds,dailyrainin,SoftwareType,DateUTC
2013-09-15 00:02:00,-999.0,-99.9,30.14,WNW,284,0.0,0.0,-999,-99.99,,,-99.99,,2013-09-15 04:02:00,
2013-09-15 00:14:00,43.0,42.0,30.14,WNW,284,0.0,0.0,96,0.00,,,0.26,,2013-09-15 04:14:00,
2013-09-15 00:24:00,43.0,42.0,30.13,WNW,284,0.0,1.0,97,0.00,,,0.00,,2013-09-15 04:24:00,
2013-09-15 00:54:00,43.0,42.0,30.13,WNW,292,0.0,0.0,96,0.00,,,0.00,,2013-09-15 04:54:00,
2013-09-15 01:13:00,43.0,42.0,30.13,WNW,292,0.0,0.0,96,0.00,,,0.00,,2013-09-15 05:13:00,
2013-09-15 01:22:00,42.0,41.0,30.12,WNW,292,0.0,0.0,95,0.00,,,0.00,,2013-09-15 05:22:00,
2013-09-15 01:42:00,41.0,40.0,30.12,WNW,292,0.0,1.0,95,0.00,,,0.00,,2013-09-15 05:42:00,
2013-09-15 01:52:00,41.0,40.0,30.12,WNW,292,0.0,0.0,95,0.00,,,0.00,,2013-09-15 05:52:00,
2013-09-15 02:12:00,40.0,39.0,30.13,SE,140,0.0,0.0,95,0.00,,,0.00,,2013-09-15 06:12:00,
2013-09-15 02:21:00,40.0,39.0,30.13,SE,140,0.0,0.0,96,0.00,,,0.00,,2013-09-15 06:21:00,
2013-09-15 02:52:00,39.0,38.0,30.13,SE,140,0.0,0.0,96,0.00,,,0.00,,2013-09-15 06:52:00,
2013-09-15 03:11:00,39.0,38.0,30.13,SE,140,0.0,0.0,96,0.00,,,0.00,,2013-09-15 07:11:00,
2013-09-15 03:22:00,38.0,37.0,30.13,SE,140,0.0,0.0,96,-99.99,,,0.00,,2013-09-15 07:22:00,
2013-09-15 03:53:00,38.0,37.0,30.13,SE,140,0.0,0.0,96,0.00,,,0.00,,2013-09-15 07:53:00,
2013-09-15 04:11:00,38.0,37.0,30.13,SE,140,0.0,0.0,96,0.00,,,-99.99,,2013-09-15 08:11:00,
2013-09-15 04:22:00,38.0,37.0,30.14,SE,140,0.0,0.0,96,0.00,,,0.00,,2013-09-15 08:22:00,
2013-09-15 04:52:00,38.0,37.0,30.14,SE,140,0.0,0.0,97,0.00,,,0.00,,2013-09-15 08:52:00,
2013-09-15 05:12:00,38.0,37.0,30.14,SE,140,0.0,0.0,97,0.00,,,0.00,,2013-09-15 09:12:00,
2013-09-15 05:22:00,38.0,37.0,30.14,SE,140,0.0,0.0,97,0.00,,,0.00,,2013-09-15 09:22:00,
2013-09-15 05:53:00,39.0,38.0,30.14,SE,140,0.0,0.0,97,0.00,,,0.00,,2013-09-15 09:53:00,
2013-09-15 06:13:00,40.0,39.0,30.14,North,0,0.0,0.0,97,0.00,,,0.00,,2013-09-15 10:13:00,
2013-09-15 06:23:00,40.0,39.0,30.14,North,0,0.0,0.0,97,0.00,,,0.01,,2013-09-15 10:23:00,
2013-09-15 06:43:00,39.0,38.0,30.15,North,0,0.0,0.0,96,0.00,,,0.01,,2013-09-15 10:43:00,
2013-09-15 06:52:00,39.0,38.0,30.15,North,0,0.0,0.0,96,0.00,,,0.01,,2013-09-15 10:52:00,
2013-09-15 07:12:00,38.0,37.0,30.15,North,0,0.0,0.0,97,0.00,,,0.01,,2013-09-15 11:12:00,
2013-09-15 07:22:00,38.0,37.0,30.16,North,0,0.0,0.0,97,-99.99,,,0.01,,2013-09-15 11:22:00,
2013-09-15 07:52:00,40.0,39.0,30.16,North,0,0.0,0.0,98,-99.99,,,0.01,,2013-09-15 11:52:00,
2013-09-15 08:12:00,43.0,42.0,30.16,North,0,0.0,0.0,98,0.00,,,-99.99,,2013-09-15 12:12:00,
2013-09-15 08:21:00,44.0,43.0,30.16,South,180,0.0,1.0,98,0.00,,,0.01,,2013-09-15 12:21:00,
2013-09-15 08:32:00,44.0,43.0,30.16,South,180,0.0,1.0,98,0.00,,,0.01,,2013-09-15 12:32:00,
2013-09-15 08:52:00,48.0,47.0,30.16,SW,234,0.0,0.0,98,0.00,,,0.01,,2013-09-15 12:52:00,
2013-09-15 09:11:00,50.0,49.0,30.16,NNW,343,0.0,1.0,98,0.00,,,-99.99,,2013-09-15 13:11:00,
2013-09-15 09:22:00,51.0,48.0,30.16,NNW,333,0.0,0.0,90,0.00,,,0.01,,2013-09-15 13:22:00,
2013-09-15 09:53:00,52.0,49.0,30.17,North,11,0.0,1.0,89,0.00,,,0.01,,2013-09-15 13:53:00,
2013-09-15 10:22:00,56.0,52.0,30.18,WNW,288,1.0,5.0,85,0.00,,,0.01,,2013-09-15 14:22:00,
2013-09-15 15:22:00,64.0,50.0,30.10,NNW,335,1.0,3.0,61,0.00,,,0.01,,2013-09-15 19:22:00,
2013-09-15 15:52:00,64.0,50.0,30.09,NNW,338,1.0,1.0,61,0.00,,,0.01,,2013-09-15 19:52:00,
2013-09-15 16:11:00,64.0,50.0,30.09,WSW,256,0.0,1.0,61,0.00,,,-99.99,,2013-09-15 20:11:00,
2013-09-15 16:22:00,63.0,50.0,30.09,WNW,285,0.0,0.0,63,0.00,,,0.01,,2013-09-15 20:22:00,
2013-09-15 16:53:00,62.0,50.0,30.09,NW,318,2.0,2.0,64,0.00,,,0.01,,2013-09-15 20:53:00,
2013-09-15 17:11:00,62.0,50.0,30.09,East,94,2.0,3.0,64,0.00,,,0.01,,2013-09-15 21:11:00,
2013-09-15 17:21:00,62.0,51.0,30.10,North,350,4.0,7.0,66,0.00,,,0.01,,2013-09-15 21:21:00,
2013-09-15 17:44:00,61.0,50.0,30.09,NNW,333,0.0,1.0,67,0.00,,,0.01,,2013-09-15 21:44:00,
2013-09-15 17:54:00,60.0,51.0,30.07,NNW,327,0.0,0.0,71,0.00,,,0.01,,2013-09-15 21:54:00,
2013-09-15 18:14:00,60.0,51.0,30.07,NW,306,0.0,0.0,73,0.00,,,0.01,,2013-09-15 22:14:00,
2013-09-15 18:23:00,59.0,51.0,30.08,NNW,346,0.0,0.0,76,0.00,,,0.01,,2013-09-15 22:23:00,
2013-09-15 18:53:00,58.0,51.0,30.09,NNW,334,0.0,0.0,77,0.00,,,0.01,,2013-09-15 22:53:00,
2013-09-15 19:12:00,58.0,50.0,30.09,North,10,0.0,0.0,76,0.00,,,0.01,,2013-09-15 23:12:00,
2013-09-15 19:22:00,57.0,51.0,30.09,North,360,0.0,0.0,79,0.00,,,-99.99,,2013-09-15 23:22:00,
2013-09-15 19:53:00,56.0,50.0,30.10,SSW,207,0.0,0.0,81,0.00,,,0.01,,2013-09-15 23:53:00,
2013-09-15 20:11:00,56.0,50.0,30.10,North,5,0.0,0.0,80,0.00,,,0.01,,2013-09-16 00:11:00,
2013-09-15 20:22:00,56.0,50.0,30.09,WSW,246,0.0,0.0,81,0.00,,,0.01,,2013-09-16 00:22:00,
2013-09-15 20:42:00,56.0,50.0,30.09,West,274,0.0,0.0,81,0.00,,,0.01,,2013-09-16 00:42:00,
2013-09-15 20:52:00,56.0,51.0,30.09,West,274,0.0,0.0,83,0.00,,,0.01,,2013-09-16 00:52:00,
2013-09-15 21:12:00,55.0,51.0,30.10,West,274,0.0,0.0,85,-99.99,,,0.01,,2013-09-16 01:12:00,
2013-09-15 21:21:00,55.0,51.0,30.09,West,281,0.0,0.0,85,0.00,,,-99.99,,2013-09-16 01:21:00,
2013-09-15 21:42:00,55.0,50.0,30.09,NNW,331,0.0,0.0,84,0.00,,,0.01,,2013-09-16 01:42:00,
2013-09-15 21:52:00,55.0,50.0,30.09,NW,306,0.0,0.0,84,-99.99,,,0.01,,2013-09-16 01:52:00,
2013-09-15 22:12:00,54.0,50.0,30.08,WNW,302,0.0,0.0,85,-99.99,,,0.01,,2013-09-16 02:12:00,
2013-09-15 22:22:00,54.0,50.0,30.07,NNE,17,0.0,1.0,86,0.00,,,0.01,,2013-09-16 02:22:00,
2013-09-15 22:42:00,54.0,50.0,30.07,WNW,303,0.0,0.0,85,0.00,,,0.01,,2013-09-16 02:42:00,
2013-09-15 22:52:00,54.0,50.0,30.08,NNE,22,0.0,0.0,85,0.00,,,0.01,,2013-09-16 02:52:00,
2013-09-15 23:11:00,54.0,50.0,30.08,NNE,27,0.0,1.0,86,0.00,,,0.01,,2013-09-16 03:11:00,
2013-09-15 23:22:00,53.0,50.0,30.09,North,351,1.0,3.0,91,0.00,,,0.03,,2013-09-16 03:22:00,
2013-09-15 23:55:00,52.0,50.0,30.08,WNW,286,0.0,0.0,94,0.00,,,0.05,,2013-09-16 03:55:00,